Location: Bowden
(51.9167°N, 114.0333°W)
Time: 01:01:17
(UTC+00:00)

Envisat - Pass Details

Date: 12 December 2021
Orbit: 764 x 766 km, 98.2° (Epoch: 28 January)

Event Time Altitude Azimuth Distance (km) Brightness Sun altitude
Rises 12:13:02 0° 18° (NNE) 3,247 6.5 -29.7°
Reaches altitude 10° 12:15:27 10° 25° (NNE) 2,316 5.7 -29.4°
Maximum altitude 12:20:21 45° 98° (E) 1,037 4.0 -28.6°
Drops below altitude 10° 12:25:12 10° 171° (S) 2,298 5.6 -27.9°
Sets 12:27:35 0° 178° (S) 3,219 6.3 -27.5°
